Weather History for Pine Bluff, AR

Change the Weather History Date:

Thursday, February 21, 2013

  Actual Average Record
Temperature  
Mean Temperature 37 °F 48 °F  
Max Temperature 40 °F 57 °F 81 °F (2005)
Min Temperature 33 °F 38 °F 17 °F (1968)
Degree Days  
Heating Degree Days 28 17  
Month to date heating degree days 383 413  
Since 1 July heating degree days 2057 2271  
Cooling Degree Days 0 0  
Month to date cooling degree days 0 0  
Year to date cooling degree days 5 1  
Moisture  
Dew Point 34 °F    
Average Humidity 85    
Maximum Humidity 100    
Minimum Humidity 70    
Precipitation  
Precipitation 1.22 in 0.16 in 1.49 in (2003)
Month to date precipitation 3.56 2.90  
Year to date precipitation 10.49 6.66  
Snow  
Snow T in 0.00 in 2.00 in (1929)
Month to date snowfall T 0.6  
Since 1 July snowfall 2.1 3.1  
Snow Depth 0.00 in    
Sea Level Pressure  
Sea Level Pressure 29.87 in    
Wind  
Wind Speed 9 mph (NE)    
Max Wind Speed 18 mph    
Max Gust Speed 24 mph    
Visibility 7 miles    
Events Fog , Rain , Snow , Thunderstorm    
T = Trace of Precipitation, MM = Missing Value Source: NWS Daily Summary

Daily Weather History Graph

Daily Weather History Graph

Search for Another Location

Airport:

Trip Planner

Search our weather history database for the weather conditions in past years. The results will help you decide how hot, cold, wet, or windy it might be!

Date:

Astronomy

Feb. 21, 2013 Rise Set
Actual Time 6:45 AM CST 5:57 PM CST
Civil Twilight 6:20 AM CST 6:22 PM CST
Nautical Twilight 5:51 AM CST 6:51 PM CST
Astronomical Twilight 5:22 AM CST 7:20 PM CST
Moon 2:19 PM CST (2/21) 3:43 AM CST (2/21)
Length of Visible Light 12h 02m
Length of Day
11h 11m
Waxing Gibbous, 84% of the Moon is Illuminated
Feb 21
Waxing Gibbous
Feb 25
Full
Mar 4
Last Quarter
Mar 11
New
Mar 19
First Quarter

Hourly Weather History & Observations

Time (CST) Temp. Windchill Dew Point Humidity Pressure Visibility Wind Dir Wind Speed Gust Speed Precip Events Conditions
12:53 AM 33.1 °F 23.0 °F 28.9 °F 85% 30.10 in 10.0 mi NE 15.0 mph 20.7 mph 0.01 in   Overcast
1:53 AM 34.0 °F 26.0 °F 28.9 °F 82% 30.11 in 10.0 mi ENE 10.4 mph - 0.00 in   Overcast
2:53 AM 34.0 °F 26.6 °F 30.0 °F 85% 30.09 in 10.0 mi NE 9.2 mph - 0.01 in Rain Light Rain
3:53 AM 34.0 °F 24.6 °F 28.9 °F 82% 30.05 in 10.0 mi ENE 13.8 mph - 0.00 in   Overcast
4:53 AM 34.0 °F 25.5 °F 28.9 °F 82% 30.05 in 10.0 mi ENE 11.5 mph - 0.00 in   Overcast
5:53 AM 35.1 °F 26.9 °F 30.0 °F 82% 30.04 in 10.0 mi ENE 11.5 mph - 0.01 in   Overcast
6:19 AM 35.6 °F 27.5 °F 28.4 °F 75% 30.02 in 10.0 mi East 11.5 mph - 0.00 in   Overcast
6:53 AM 35.1 °F 25.2 °F 30.0 °F 82% 29.99 in 10.0 mi East 16.1 mph 24.2 mph 0.00 in   Overcast
7:53 AM 37.0 °F 28.5 °F 28.9 °F 73% 29.96 in 10.0 mi East 13.8 mph - N/A   Overcast
8:09 AM 37.4 °F 29.8 °F 30.2 °F 75% 29.96 in 10.0 mi East 11.5 mph - 0.00 in Thunderstorm Overcast
8:29 AM 35.6 °F 26.2 °F 30.2 °F 81% 29.92 in 1.8 mi East 15.0 mph - 0.17 in Rain , Thunderstorm Heavy Thunderstorms and Rain
8:36 AM 35.6 °F 26.2 °F 30.2 °F 81% 29.91 in 3.0 mi East 15.0 mph - 0.18 in Rain , Thunderstorm Light Thunderstorms and Rain
8:53 AM 36.0 °F 27.1 °F 30.9 °F 82% 29.89 in 10.0 mi East 13.8 mph - 0.18 in   Overcast
9:12 AM 37.4 °F 28.5 °F 30.2 °F 75% 29.87 in 10.0 mi East 15.0 mph - 0.00 in Rain , Thunderstorm Light Thunderstorms and Rain
9:27 AM 37.4 °F 27.8 °F 30.2 °F 75% 29.84 in 10.0 mi East 17.3 mph - 0.00 in   Overcast
9:43 AM 37.4 °F 33.8 °F 32.0 °F 81% 29.87 in 5.0 mi Variable 4.6 mph - 0.02 in Rain , Thunderstorm Light Rain
9:51 AM 37.4 °F - 32.0 °F 81% 29.88 in 1.5 mi Calm Calm - 0.11 in Rain , Thunderstorm Heavy Thunderstorms and Rain
9:53 AM 37.0 °F - 32.0 °F 82% 29.87 in 1.0 mi Calm Calm - 0.17 in Rain , Thunderstorm Heavy Thunderstorms and Rain
10:03 AM 35.6 °F 28.6 °F 33.8 °F 93% 29.84 in 4.0 mi East 9.2 mph - 0.01 in Rain , Thunderstorm Light Thunderstorms and Rain
10:15 AM 37.4 °F 32.8 °F 33.8 °F 87% 29.85 in 9.0 mi East 5.8 mph - 0.02 in Rain , Thunderstorm Light Rain
10:32 AM 37.4 °F 28.9 °F 33.8 °F 87% 29.83 in 2.0 mi East 13.8 mph - 0.22 in Rain , Thunderstorm Heavy Thunderstorms and Rain
10:53 AM 37.9 °F 29.6 °F 34.0 °F 86% 29.82 in 10.0 mi East 13.8 mph - 0.24 in Thunderstorm Overcast
11:07 AM 39.2 °F 34.2 °F 33.8 °F 81% 29.84 in 10.0 mi East 6.9 mph - N/A   Overcast
11:33 AM 37.4 °F 29.3 °F 33.8 °F 87% 29.82 in 4.0 mi East 12.7 mph - 0.04 in Rain , Thunderstorm Heavy Rain
11:53 AM 39.0 °F 32.3 °F 36.0 °F 89% 29.81 in 5.0 mi East 10.4 mph 21.9 mph 0.16 in Rain , Thunderstorm Light Thunderstorms and Rain
12:05 PM 39.2 °F 35.9 °F 35.6 °F 87% 29.83 in 2.0 mi ENE 4.6 mph - 0.10 in Rain , Thunderstorm Heavy Rain
12:21 PM 39.2 °F 37.0 °F 35.6 °F 87% 29.83 in 5.0 mi North 3.5 mph - 0.19 in Rain , Thunderstorm Heavy Thunderstorms and Rain
12:33 PM 37.4 °F 31.4 °F 35.6 °F 93% 29.81 in 2.0 mi ENE 8.1 mph - 0.26 in Rain Rain
12:44 PM 37.4 °F 30.8 °F 35.6 °F 93% 29.79 in 4.0 mi ENE 9.2 mph - 0.30 in Rain Heavy Rain
12:53 PM 37.9 °F 33.5 °F 36.0 °F 93% 29.81 in 6.0 mi East 5.8 mph - 0.31 in Rain Light Rain
1:28 PM 37.4 °F 30.8 °F 37.4 °F 100% 29.78 in 10.0 mi NE 9.2 mph 19.6 mph 0.04 in Rain Light Rain
1:53 PM 37.9 °F 32.1 °F 37.0 °F 97% 29.76 in 10.0 mi NE 8.1 mph - 0.06 in Rain Light Rain
2:40 PM 39.2 °F 37.0 °F 37.4 °F 93% 29.75 in 10.0 mi Variable 3.5 mph - 0.01 in   Overcast
2:53 PM 39.9 °F 35.1 °F 39.0 °F 97% 29.75 in 10.0 mi NE 6.9 mph - 0.01 in Rain Light Rain
3:19 PM 39.2 °F 34.2 °F 39.2 °F 100% 29.73 in 10.0 mi ENE 6.9 mph - 0.00 in   Overcast
3:53 PM 39.9 °F 34.5 °F 39.0 °F 97% 29.73 in 9.0 mi NNE 8.1 mph - 0.00 in   Overcast
4:22 PM 39.2 °F 33.0 °F 39.2 °F 100% 29.71 in 10.0 mi North 9.2 mph - N/A   Overcast
4:53 PM 39.9 °F 35.1 °F 39.0 °F 97% 29.75 in 8.0 mi North 6.9 mph - N/A   Overcast
5:30 PM 37.4 °F 27.8 °F 37.4 °F 100% 29.79 in 2.5 mi NW 17.3 mph - 0.01 in Snow Light Snow
5:53 PM 37.0 °F 29.8 °F 37.0 °F 100% 29.79 in 4.0 mi NNW 10.4 mph - 0.07 in Rain Light Rain
6:10 PM 37.4 °F 32.1 °F 37.4 °F 100% 29.76 in 6.0 mi NNE 6.9 mph - 0.00 in Rain Light Rain
6:18 PM 37.4 °F 32.1 °F 37.4 °F 100% 29.77 in 8.0 mi NNE 6.9 mph - 0.00 in   Overcast
6:28 PM 37.4 °F 32.1 °F 37.4 °F 100% 29.78 in 9.0 mi North 6.9 mph - 0.00 in   Overcast
6:53 PM 37.9 °F 30.9 °F 37.0 °F 97% 29.83 in 10.0 mi NW 10.4 mph - 0.00 in   Overcast
7:10 PM 37.4 °F 34.9 °F 37.4 °F 100% 29.82 in 10.0 mi North 3.5 mph - N/A   Overcast
7:53 PM 37.9 °F 31.5 °F 37.0 °F 97% 29.88 in 10.0 mi WNW 9.2 mph - N/A   Overcast
8:53 PM 37.0 °F 31.6 °F 37.0 °F 100% 29.90 in 10.0 mi NW 6.9 mph - N/A   Overcast
9:18 PM 37.4 °F 32.8 °F 35.6 °F 93% 29.90 in 10.0 mi NNW 5.8 mph - N/A   Overcast
9:53 PM 36.0 °F - 36.0 °F 100% 29.90 in 1.8 mi Calm Calm - N/A   Overcast
10:06 PM 35.6 °F - 35.6 °F 100% 29.89 in 0.5 mi Calm Calm - N/A Fog Fog
10:33 PM 35.6 °F - 35.6 °F 100% 29.90 in 0.2 mi Calm Calm - N/A Fog Fog
10:53 PM 36.0 °F - 36.0 °F 100% 29.91 in 0.2 mi Calm Calm - N/A Fog Fog
11:30 PM 35.6 °F - 35.6 °F 100% 29.90 in 0.2 mi Calm Calm - N/A Fog Fog
11:53 PM 35.6 °F - 35.6 °F 100% 29.91 in 0.2 mi Calm Calm - N/A Fog Fog